Regional Weather Roundup
Issued by NWS

Home | Current Version | Previous Version | Text Only | Print | Product List | Glossary Off
Versions: 1 2 3 4 5 6 7 8 9 10 11 12 13 14 15 16 17 18 19 20 21 22 23 24 25 26 27 28 29 30 31 32 33 34 35 36 37 38 39 40 41 42 43 44 45 46 47 48 49 50

000
ASUS44 KMEG 280000
RWRTN
TENNESSEE HOURLY STATE WEATHER ROUNDUP
NATIONAL WEATHER SERVICE MEMPHIS TN
700 PM CDT MON APR 27 2015

TNZ002-004-019-021-049-052-054-088>092-280100-
WEST TENNESSEE

CITY           SKY/WX    TMP DP  RH WIND       PRES   REMARKS
MEMPHIS INTL   MOCLDY    65  38  36 NE14      29.94R
NWS MEMPHIS      N/A     64 N/A N/A MISG        N/A
JACKSON        PTCLDY    61  36  39 NE10      29.93S
DYERSBURG      MOCLDY    63  34  34 NE13G18   29.96R
UNION CITY     CLEAR     61  32  33 NE8       29.95F
PARIS          CLEAR     59  37  44 N7        29.97S
LEXINGTON      CLEAR     63  36  36 NE6       29.92S
SAVANNAH       CLEAR     64  32  29 NE8       29.93R
$$

TNZ008-025-027-028-033-062-065-066-280100-
NORTH MIDDLE TENNESSEE

CITY           SKY/WX    TMP DP  RH WIND       PRES   REMARKS
NASHVILLE      PTCLDY    62  39  42 N10       29.94F
CLARKSVILLE    CLEAR     60  39  45 N10       29.97R
COOKEVILLE     CLEAR     63  41  45 N3        29.92S
CROSSVILLE     CLEAR     59  34  39 N7        29.94S
$$

TNZ061-075-076-078-094-096-097-280100-
SOUTH MIDDLE TENNESSEE

CITY           SKY/WX    TMP DP  RH WIND       PRES   REMARKS
FAYETTEVILLE     N/A     61  37  41 N9        29.92R
TULLAHOMA      CLEAR     61  36  39 N8        29.93S
WINCHESTER     CLEAR     61  39  44 N6        29.93R
MCMINNVILLE    CLEAR     61  39  44 N7        29.92S
COLUMBIA       CLEAR     63  32  31 NE9       29.92R
SHELBYVILLE    CLEAR     61  43  51 NE8       29.93F
$$

TNZ017-018-042-046-047-280100-
NORTHEAST TENNESSEE

CITY           SKY/WX    TMP DP  RH WIND       PRES   REMARKS
TRI CITIES     PTCLDY    56  31  38 N6        29.92S
ELIZABETHTON   CLEAR     54  28  37 N9        29.92R
$$

TNZ012-013-036-069-073-074-280100-
CENTRAL EAST TENNESSEE

CITY           SKY/WX    TMP DP  RH WIND       PRES   REMARKS
KNOXVILLE      PTCLDY    60  34  37 NE12      29.91R
OAK RIDGE      CLEAR     64  36  35 CALM      29.92S
GATLINBURG     CLEAR     61  34  36 N3        29.91R
$$

TNZ083-085-099-280100-
SOUTHEAST TENNESSEE

CITY           SKY/WX    TMP DP  RH WIND       PRES   REMARKS
CHATTANOOGA    MOCLDY    65  36  34 NE8       29.89S
$$

SKY/WX REPORTED AS FAIR MEANS FEW OR NO CLOUDS BELOW
12 THOUSAND FEET.



USA.gov is the U.S. government's official web portal to all federal, state and local government web resources and services.